Location: Yucca Valley
(34.1140°N, 116.4310°W)
Time: 07:16:01
(UTC-07:00)

Daily predictions for brighter satellites

Satellite Brightness Start Highest point End
(mag) Time Altitude Azimuth Time Altitude Azimuth Time Altitude Azimuth
Cosmos 1980 Rocket 3.0 19:29:47 10° SSE 19:34:34 29° ESE 19:39:23 10° NE
Iridium 4 Rocket 4.5 19:32:43 10° NNE 19:36:13 21° E 19:39:32 10° SE
Cosmos 1656 3.7 19:34:22 10° SSW 19:39:59 81° ESE 19:45:33 10° NNE
ALOS 3.1 19:37:19 10° SE 19:41:23 30° ENE 19:45:27 10° N
H-2A R/B 4.2 19:38:35 10° ESE 19:41:32 21° ENE 19:44:31 10° NNE
FENGYUN 3A 4.4 19:37:10 10° SE 19:41:53 33° ENE 19:46:37 10° N
Spot 2 Rocket 3.5 19:38:44 10° SSE 19:43:48 76° ENE 19:48:53 10° N
Meteor 1-28 Rocket 4.3 19:40:39 10° N 19:44:20 49° WNW 19:47:58 10° SSW
Resurs 1-3 3.7 19:40:20 10° SSE 19:44:36 55° ENE 19:48:54 10° N
NOAA 12 4.4 19:41:15 10° S 19:46:28 73° WSW 19:51:41 10° NNW
Tiangong 1 2.6 19:47:42 10° NW 19:50:24 26° NNE 19:53:02 10° ENE
RESURS DK-1 3.6 19:47:11 10° N 19:50:35 24° ENE 19:53:33 12° ESE
OAO 2 Rocket 3.3 19:47:14 10° W 19:52:13 82° N 19:56:54 12° E
FREGAT/IRIS 4.3 19:52:48 10° S 19:55:46 39° W 19:58:44 10° NNW
Cosmos 1937 Rocket 4.4 19:52:31 10° N 19:57:12 31° ENE 20:01:21 12° SE
Cosmos 1500 3.5 19:54:50 10° SSE 19:58:25 43° E 20:02:00 10° NNE
Helios 1A 3.2 19:54:36 10° S 19:58:46 75° WSW 20:02:58 10° NNW
Cosmos 2123 Rocket 4.0 19:55:07 10° N 20:01:19 86° W 20:07:29 10° S
Myojo/LAPS 3.8 20:03:08 10° WSW 20:05:25 26° S 20:06:33 18° SE
Cosmos 1340 4.4 20:03:26 10° NE 20:05:41 15° ENE 20:06:07 15° E
CZ-2D R/B 3.4 20:05:41 10° SSE 20:09:26 51° ENE 20:13:13 10° N
Cosmos 2322 Rocket 3.3 20:06:07 10° SSE 20:10:11 21° E 20:14:16 10° NE
Cosmos 2227 Rocket 3.0 20:04:59 10° NNW 20:10:28 52° WSW 20:15:54 10° S
ERS-1 Rocket 4.3 20:09:01 17° E 20:11:07 21° ENE 20:14:51 10° NNE
Cosmos 2298 Rocket 4.0 20:05:49 10° NNW 20:11:08 67° ENE 20:16:24 10° SSE
Cosmos 1975 3.4 20:11:09 10° SSW 20:15:13 62° W 20:19:17 10° N
Resurs 01 Rocket 2.8 20:12:12 10° S 20:16:26 45° W 20:20:42 10° NNW
Lacrosse 5 rocket 3.0 20:16:28 10° WNW 20:19:31 25° WSW 20:22:30 10° S
Cosmos 1763 Rocket 3.4 20:18:00 10° S 20:22:59 58° ESE 20:27:58 10° NNE
Cosmos 2297 Rocket 2.9 20:19:27 10° NNW 20:24:58 55° WSW 20:30:28 10° S
Cosmos 1515 3.6 20:23:30 10° N 20:27:21 86° W 20:31:02 11° S
EO 1 Delta rocket 4.5 20:23:24 10° N 20:28:24 72° W 20:34:31 10° SSW
SWAS 4.5 20:27:59 10° S 20:32:11 55° ESE 20:36:25 10° NNE
Cosmos 2360 4.1 20:26:53 10° S 20:32:32 69° ESE 20:38:14 10° NNE
Cosmos 2084 4.2 20:30:57 10° NW 20:34:58 49° WSW 20:38:05 17° S
Cosmos 2150 Rocket 4.0 20:30:26 10° NNW 20:35:36 82° WSW 20:39:57 15° SSE
Cosmos 1825 Rocket 3.8 20:33:22 10° N 20:37:37 46° E 20:38:42 37° ESE
Cosmos 1898 Rocket 3.8 20:37:22 10° NNW 20:42:36 65° WSW 20:47:08 13° S
Cosmos 1743 2.7 20:41:30 10° S 20:45:24 82° W 20:49:20 10° N
H-2A R/B 3.6 20:49:18 20° NE 20:49:18 20° NE 20:51:24 10° NNE
Meteor 1-21 4.4 20:43:01 10° N 20:48:43 56° E 20:51:00 35° SE
Cosmos 841 Rocket 3.4 20:44:00 10° SSW 20:49:14 87° WNW 20:54:29 10° NNE
Cosmos 1802 Rocket 4.0 20:43:25 10° S 20:49:49 80° E 20:56:15 10° N
Cosmos 1953 Rocket 3.8 20:46:21 10° N 20:50:40 47° E 20:50:51 47° E
Cosmos 2016 Rocket 3.9 20:45:35 10° S 20:51:37 68° E 20:57:46 10° NNE
USA 186 3.3 20:56:23 25° SW 20:57:16 31° W 20:59:49 10° NW
CZ-3C R/B 3.8 20:10:42 10° W 20:57:28 41° SSW 21:02:33 25° SSE
Cosmos 1939 Rocket 3.3 20:58:21 49° NE 20:58:21 49° NE 21:02:02 10° N
Cosmos 2098 Rocket 4.0 20:54:30 18° SSE 20:59:31 59° E 21:05:05 10° NNE
Milstar 3 Cent rocket 4.5 20:34:37 10° W 20:59:43 66° SSW 21:06:49 33° SE
Cosmos 2173 Rocket 4.3 20:56:52 10° SSW 21:03:12 69° W 21:09:31 10° N
SJ-11-01 4.1 21:03:11 55° SSE 21:04:12 84° ENE 21:08:53 10° N
DELTA 2 R/B (1) 4.3 21:00:23 10° WNW 21:05:35 41° SSW 21:06:57 35° S
Lacrosse 5 2.5 21:03:05 10° NW 21:07:57 49° SW 21:09:26 37° S
Cosmos 1758 Rocket 3.7 21:04:26 10° N 21:08:07 57° NE 21:08:07 57° NE
SL-16 R/B 2.0 21:03:40 10° S 21:09:17 71° ESE 21:14:56 10° NNE
Cosmos 1375 Rocket 4.5 21:04:40 10° SSW 21:11:15 89° E 21:17:52 10° NNE
YAOGAN 11 4.2 21:13:22 63° SSW 21:13:58 74° WSW 21:18:25 10° NNW
Cosmos 967 Rocket 4.4 21:08:17 10° NNW 21:14:38 86° WSW 21:16:23 51° SSE
SPOT 5 3.7 21:15:53 36° NE 21:15:53 36° NE 21:19:17 10° N
Cosmos 1980 Rocket 3.9 21:13:22 10° SW 21:18:24 33° WNW 21:23:30 10° N
Cosmos 1864 Rocket 4.3 21:19:09 52° SSE 21:20:40 76° E 21:26:47 10° N
Cosmos 1666 4.0 21:23:52 35° NNW 21:23:52 35° NNW 21:26:16 10° N
deb Chang Zheng 4 4.5 21:22:24 10° NNE 21:25:22 42° NNE 21:25:22 42° NNE
Tiangong 1 3.8 21:23:59 10° WNW 21:25:01 19° WNW 21:25:01 19° WNW
RESURS DK-1 4.4 21:25:17 10° NW 21:28:29 22° WSW 21:29:31 20° SW
Centaur AC-125 4.1 21:14:59 10° W 21:30:30 43° SSW 21:31:02 42° S
Envisat 3.0 21:33:04 72° WSW 21:33:08 72° WSW 21:38:13 10° NNW
Cosmos 2058 Rocket 3.9 21:36:37 49° W 21:36:39 49° W 21:41:02 10° N
OAO 2 Rocket 4.0 21:32:03 10° W 21:35:52 46° WSW 21:35:52 46° WSW
Tsikada Rocket 3.9 21:36:39 10° N 21:43:05 89° ENE 21:43:16 86° SSE
Cosmos 2263 Rocket 3.3 21:40:08 10° N 21:43:45 33° NNE 21:43:45 33° NNE
ERS-1 Rocket 4.1 21:49:01 35° WSW 21:49:37 36° W 21:54:14 10° NNW
Cosmos 2322 Rocket 3.2 21:48:33 10° SW 21:53:51 43° WNW 21:59:11 10° N
H-2A R/B 4.2 22:15:46 16° N 22:15:46 16° N 22:16:51 10° N
